RH
21 22 23 24 24 24 24 27 33 41 50 59 70 80 86 86 86 87 87 87 87 87 87 86 86 86 85 84 83 81 78 73 68 64 59 54 49 43 37 32 26 21 17 13 10 9 8 9 10 11 12 13 13 13 13 12 12 11 10 9 9 8 7 6 6 5 4 4 4 4 3 4 4 4 5 5 6 6 7 8 9 9 10 11 12 13
22 23 24 24 24 24 25 29 35 42 50 60 72 82 86 86 87 87 87 87 87 86 86 86 85 85 83 82 79 76 72 67 62 58 53 48 42 36 30 25 19 14 11 9 9 9 10 11 12 13 13 14 13 13 12 12 11 10 9 8 8 7 6 5 5 4 4 4 4 4 4 4 4 5 5 6 6 7 8 9 9 10 11 12 13 14
23 24 24 25 25 26 27 31 37 45 54 66 77 85 86 87 87 87 86 86 86 86 86 85 84 82 81 78 74 70 66 61 57 52 46 40 34 27 21 16 12 10 9 9 10 11 12 13 14 14 14 14 13 12 12 11 10 9 8 7 7 6 5 5 4 4 4 4 4 4 4 4 5 5 6 7 7 8 9 9 10 11 12 14 15 16
24 24 24 24 25 27 31 36 43 52 64 75 83 86 86 86 86 86 86 86 85 85 84 83 81 79 77 73 68 64 60 54 49 43 36 30 23 18 13 10 9 9 10 11 12 13 14 15 15 14 14 13 12 12 11 10 9 8 7 7 6 5 5 4 4 4 4 4 4 4 5 5 6 6 7 7 8 9 10 11 12 13 14 15 17 18
24 24 26 30 35 40 44 48 55 64 74 82 85 86 86 86 86 86 85 85 85 84 82 81 78 75 70 66 61 57 51 45 38 31 25 19 14 11 10 9 10 11 12 13 14 15 15 15 15 14 13 12 11 10 10 9 8 7 7 6 5 5 4 4 4 4 4 4 4 5 5 6 6 7 7 8 9 10 11 12 13 15 16 17 19 21
29 37 49 58 61 60 56 59 67 75 83 85 86 86 86 86 85 85 85 84 83 82 80 76 72 67 63 58 53 47 41 34 27 20 15 12 10 10 10 11 12 13 14 15 16 16 16 15 14 13 12 11 10 10 9 8 7 7 6 5 5 4 4 4 4 4 4 4 5 5 6 6 7 8 8 9 10 11 13 14 15 17 18 20 22 24
48 61 71 69 64 61 61 70 78 84 85 85 86 86 86 85 85 85 84 82 80 77 74 69 64 59 54 49 43 36 29 22 17 13 10 10 10 11 12 13 14 15 16 16 16 16 15 14 13 12 11 10 10 9 8 7 7 6 5 5 4 4 4 4 4 4 4 5 5 6 6 7 8 9 10 10 12 13 14 16 17 18 20 22 24 27
70 75 73 63 60 63 72 80 84 85 85 85 85 85 85 85 84 83 81 77 74 70 65 60 55 50 44 37 30 24 17 13 11 10 10 11 12 13 14 15 16 16 17 17 16 16 15 14 12 11 10 9 9 8 7 7 6 5 5 4 4 4 4 4 4 5 5 6 6 7 7 8 9 10 11 12 13 15 16 17 19 20 22 25 27 30
81 80 74 71 73 78 83 85 85 85 85 85 85 85 85 84 81 78 74 69 65 61 56 51 45 39 32 25 19 14 11 10 10 11 12 13 15 16 17 17 17 17 17 17 16 15 14 12 11 10 9 9 8 7 7 6 5 5 4 4 4 4 4 4 5 5 6 6 7 7 8 9 10 11 12 13 14 16 17 19 21 23 25 28 31 34
84 83 82 82 84 85 85 85 85 85 85 85 85 84 83 79 76 71 67 63 58 52 47 39 32 25 19 15 12 10 10 10 11 13 15 17 18 19 19 19 18 18 17 16 15 14 12 11 10 9 9 8 7 7 6 6 5 5 4 4 4 4 4 5 5 6 6 7 8 9 9 10 11 12 13 14 15 17 18 20 22 25 28 31 34 38
85 85 85 85 85 85 85 85 85 85 85 85 83 80 76 73 69 64 59 54 48 41 34 27 20 16 12 11 10 11 11 13 14 16 17 19 20 20 20 19 18 17 16 15 14 12 11 10 9 9 8 7 7 6 6 5 5 4 4 4 4 4 5 5 6 6 7 8 9 10 10 11 12 13 14 15 16 18 20 22 25 27 31 34 38 42
86 86 86 85 85 85 85 85 85 85 84 82 79 75 72 68 63 56 49 42 34 27 21 17 14 12 11 11 12 13 15 16 18 18 19 20 21 21 20 19 18 17 15 14 13 11 10 10 9 8 7 7 6 6 5 5 4 4 4 4 4 5 5 6 6 7 8 9 10 10 11 12 13 14 15 16 18 20 22 24 27 31 34 38 42 46
86 86 85 85 85 85 85 85 85 84 82 79 75 70 66 60 51 42 34 27 22 18 15 13 12 12 13 14 16 17 19 20 21 21 21 22 21 21 20 18 17 16 14 13 12 10 10 9 8 7 7 6 6 5 5 5 4 4 4 5 5 5 6 6 7 8 9 9 10 11 12 12 13 15 16 18 20 22 24 27 31 34 38 42 46 49
86 86 86 86 86 85 85 84 83 80 77 73 67 60 52 43 34 27 21 18 16 14 13 12 12 13 15 17 19 21 23 24 24 23 23 22 21 20 19 17 16 14 13 12 11 10 9 8 8 7 6 6 5 5 5 5 4 5 5 5 6 6 7 7 8 9 10 10 11 12 12 13 15 16 18 20 22 25 28 31 35 38 42 46 50 53
86 86 86 86 85 85 84 82 79 74 68 61 52 42 33 27 21 18 15 14 13 13 12 13 14 15 17 20 22 24 25 26 25 25 23 22 20 19 18 16 15 13 12 11 10 9 9 8 7 7 6 6 5 5 5 5 5 5 5 6 6 7 8 8 9 10 10 11 12 13 14 15 16 18 20 23 25 28 32 35 39 43 47 50 53 56
85 86 86 85 85 83 81 76 70 63 54 44 35 27 21 18 15 14 13 13 13 14 15 17 18 20 21 23 24 25 26 26 26 25 24 22 20 18 17 15 14 12 11 10 10 9 8 8 7 6 6 5 5 5 5 5 5 5 6 6 7 8 9 9 10 11 11 12 13 14 15 17 18 21 23 26 29 32 36 40 44 48 51 54 57 60
84 86 85 84 82 79 75 68 59 49 39 31 25 20 17 15 13 13 13 13 15 17 19 22 25 26 27 27 27 26 26 26 26 25 23 21 19 17 15 14 12 11 10 10 9 8 8 7 7 6 6 5 5 5 5 5 5 6 6 7 8 9 10 10 11 12 13 14 15 16 17 19 21 24 26 29 33 36 40 44 48 51 55 58 61 64
84 85 84 82 78 73 67 58 48 39 32 26 22 19 16 14 14 14 15 17 19 21 24 26 28 30 30 30 29 28 26 26 25 24 22 20 18 16 14 13 12 11 10 9 9 8 7 7 6 6 5 5 5 5 5 5 5 6 7 8 9 10 10 11 12 13 14 15 17 18 20 22 24 26 29 33 36 40 43 46 50 53 57 61 65 68
85 84 82 78 73 66 58 49 41 34 28 24 20 18 16 15 15 16 18 21 23 26 28 29 30 31 31 30 29 28 26 25 24 22 20 18 17 15 13 12 11 10 9 9 8 8 7 6 6 6 5 5 5 5 5 5 6 6 7 8 9 10 11 12 14 15 16 17 19 20 22 24 26 29 32 35 38 41 44 47 51 54 58 63 68 71
84 82 79 74 66 58 49 41 34 28 23 20 17 15 15 16 18 20 23 25 27 29 30 31 31 31 30 30 29 28 26 25 23 21 19 17 15 14 12 11 10 9 9 8 8 7 7 6 6 5 5 5 5 5 5 6 6 7 8 9 10 11 12 14 15 16 18 19 20 22 24 26 28 31 34 36 39 42 44 48 51 55 59 64 68 72
82 78 74 65 56 47 39 32 26 22 18 16 15 15 16 19 22 24 26 28 30 31 31 31 31 30 30 30 29 28 26 24 22 20 18 16 14 13 12 10 10 9 8 7 7 7 6 6 6 5 5 5 5 5 6 6 7 8 9 10 11 12 14 15 16 17 19 20 22 24 26 28 30 32 35 37 40 43 45 49 52 56 60 64 67 70
77 71 62 51 43 35 29 24 21 18 16 16 16 18 21 24 26 28 30 31 32 33 32 32 32 31 31 30 29 27 25 22 20 18 17 15 13 12 11 10 9 8 7 7 7 7 6 6 6 6 6 6 6 6 7 7 8 9 10 11 12 14 15 16 17 18 20 21 23 25 27 29 31 33 36 39 42 44 47 50 52 55 59 61 64 66
67 57 47 39 32 26 22 20 18 16 16 17 19 22 26 29 31 33 34 35 35 35 35 35 34 32 31 30 28 26 24 21 19 18 16 14 13 12 11 10 8 7 7 7 7 7 7 6 6 6 7 7 7 8 9 9 10 11 12 13 15 16 17 18 19 20 22 23 25 27 29 31 33 35 38 41 43 46 48 50 52 54 57 59 60 61
55 45 37 30 25 21 19 17 17 17 18 20 23 26 29 32 34 36 37 37 37 37 36 35 34 32 31 29 27 25 23 21 19 17 15 13 12 11 10 9 8 7 7 7 7 7 7 8 8 8 9 9 10 11 11 12 13 14 15 17 18 18 19 20 22 23 25 26 28 30 32 34 36 39 41 44 46 48 50 51 53 54 55 57 57 58
45 37 30 25 21 19 17 17 17 18 20 23 27 30 32 34 36 36 37 37 37 37 36 35 34 32 30 28 26 25 22 20 18 16 15 13 12 11 10 9 8 7 7 7 8 9 9 10 11 11 12 13 14 15 16 17 18 19 20 21 22 22 23 25 26 27 29 31 33 34 36 38 40 43 45 47 49 50 52 53 54 55 55 56 56 56
37 31 26 22 20 18 17 17 18 20 23 27 30 33 35 37 38 38 39 38 38 37 36 34 32 31 29 27 25 23 21 19 17 15 14 12 11 10 9 8 7 7 7 8 9 11 12 13 14 16 18 19 20 22 23 24 24 25 26 26 27 27 28 29 31 33 34 36 38 39 41 43 45 47 49 51 52 53 54 55 56 56 56 56 55 54
32 27 23 21 19 18 17 18 20 23 27 30 34 36 38 40 41 41 40 39 38 37 35 33 32 30 28 26 24 22 21 18 16 15 13 12 10 10 9 8 7 7 7 8 10 12 14 16 18 20 22 25 26 28 29 30 30 31 31 32 32 32 33 35 36 38 40 41 43 44 46 48 49 51 52 54 55 56 57 57 57 57 56 55 53 50
28 25 22 20 18 17 18 20 23 27 31 34 36 39 40 42 42 41 40 39 38 36 34 33 31 29 27 25 23 21 20 17 15 14 12 11 10 9 8 7 7 7 7 9 11 14 16 18 20 23 26 28 31 32 33 34 35 35 36 36 36 37 38 40 41 43 45 46 47 49 50 51 53 54 56 57 57 58 58 57 56 55 54 52 49 45
25 21 19 18 17 17 19 22 26 31 35 38 40 41 42 43 43 42 41 40 38 36 34 32 30 28 26 24 22 20 18 16 14 13 11 10 9 8 8 7 7 7 7 9 11 14 17 20 22 24 27 29 32 33 34 35 36 37 38 39 40 41 42 44 46 47 49 50 51 52 54 55 56 57 58 59 58 58 57 55 53 52 50 47 43 39
20 18 16 16 17 18 21 26 31 35 39 41 43 44 44 43 43 42 41 39 37 35 33 31 29 27 25 23 21 19 17 15 13 12 10 9 9 8 7 7 7 7 8 9 11 13 16 19 22 25 27 29 31 33 34 35 36 38 39 40 42 43 45 47 49 51 52 54 55 56 57 58 59 60 60 59 57 55 52 50 48 45 43 40 37 34
16 15 15 16 18 21 25 31 36 40 43 44 45 45 45 43 42 40 39 37 36 35 32 30 28 26 24 21 19 17 15 14 12 11 10 9 8 8 7 8 8 9 9 10 11 13 14 17 20 24 26 28 30 32 33 35 36 37 39 41 43 45 48 50 52 54 56 57 58 60 60 61 61 60 59 56 53 49 45 42 40 39 37 35 33 33
14 15 16 18 21 25 31 36 41 44 46 46 46 45 44 42 41 39 38 36 35 34 32 30 28 25 23 20 18 16 14 12 11 10 9 8 8 8 7 8 9 10 10 12 13 14 14 16 18 21 24 27 29 31 33 35 36 38 40 42 45 48 51 53 56 58 60 60 61 62 63 62 61 59 56 51 45 40 36 34 34 34 34 33 34 37
16 16 18 21 25 30 36 41 44 46 47 46 45 44 42 41 39 38 37 35 34 33 32 30 27 24 21 19 17 15 13 11 10 10 9 8 8 8 8 9 10 11 11 13 14 15 16 17 18 20 22 26 29 31 33 36 38 40 42 45 47 51 53 56 59 60 62 63 63 63 63 61 58 54 49 42 36 31 28 29 31 33 34 35 38 43
17 18 20 24 29 35 40 43 45 45 45 45 44 43 41 40 39 38 36 35 34 32 31 28 26 23 20 17 15 13 11 10 9 9 8 8 8 8 9 10 11 12 13 14 14 15 16 18 19 21 23 26 30 33 36 39 41 44 46 48 50 53 55 57 60 61 62 62 62 61 59 56 51 45 39 32 27 25 25 29 32 35 37 41 45 51
17 19 22 27 32 37 41 43 45 46 46 45 44 43 42 41 39 38 36 35 33 31 29 27 24 21 18 16 13 12 10 9 9 8 8 8 9 9 10 11 12 13 14 14 15 16 17 19 21 24 26 30 33 36 40 43 46 48 51 52 53 54 55 56 57 58 59 58 57 55 51 47 41 35 29 24 23 24 27 32 36 40 43 47 53 58
18 21 24 30 35 40 44 46 48 49 49 48 47 45 43 42 40 38 36 35 33 30 28 26 23 20 17 14 12 10 9 9 8 8 8 9 10 10 11 13 13 14 15 15 16 17 18 21 24 27 31 34 37 40 43 46 50 52 55 56 56 55 54 53 52 52 51 50 48 45 40 35 30 25 21 21 23 27 33 37 41 44 49 54 58 62
20 24 27 33 39 44 48 51 52 53 53 52 50 47 45 43 40 38 36 34 31 29 26 24 21 18 16 13 11 10 8 8 8 8 9 10 11 12 13 14 15 16 16 17 18 20 22 25 28 32 35 39 42 44 47 49 51 54 56 56 55 53 50 47 44 42 39 37 35 32 28 24 21 19 18 22 26 32 37 41 44 49 54 58 61 64
23 27 32 38 43 49 53 55 57 57 56 54 51 48 45 43 40 37 35 32 30 26 24 21 18 16 14 12 10 9 8 8 9 9 10 11 12 13 14 15 16 18 19 20 22 25 27 31 34 37 40 43 45 47 48 49 50 51 51 50 48 45 42 37 33 30 27 25 23 20 18 16 16 17 20 25 30 35 40 44 48 53 57 60 61 63
26 30 35 42 47 52 56 58 59 58 56 54 51 47 44 42 39 36 34 30 27 24 21 18 16 13 12 10 9 9 8 9 9 10 11 12 14 15 16 17 19 21 24 26 29 32 35 38 40 42 44 45 46 46 45 44 43 41 39 37 34 31 28 25 22 19 17 15 14 13 12 14 16 19 24 29 34 39 44 49 53 56 58 59 59 59
28 33 39 44 49 53 57 58 59 57 55 52 49 46 43 40 37 34 31 27 24 20 17 15 13 11 10 9 9 9 9 10 10 12 13 14 16 17 19 21 24 27 31 34 37 40 42 44 45 45 45 44 42 40 37 34 30 27 24 22 20 18 16 14 13 12 10 10 10 10 13 17 21 26 30 34 38 43 48 53 55 57 56 54 53 52
31 35 41 46 50 53 56 57 57 56 53 51 48 45 42 38 34 30 26 22 19 16 13 12 10 10 9 9 9 9 10 11 12 14 15 17 19 22 25 28 32 36 40 44 46 48 48 47 46 43 40 36 32 27 24 20 17 15 13 12 11 10 10 9 9 8 8 9 11 15 20 25 30 34 37 40 43 47 51 54 55 54 51 48 46 45
32 37 42 46 50 54 56 57 56 54 52 49 47 44 40 35 30 25 20 16 13 11 10 9 9 9 9 10 11 12 13 14 16 17 19 22 25 29 34 38 43 47 50 52 52 51 48 43 38 33 28 23 18 15 12 11 10 9 9 9 9 9 9 9 8 9 10 13 18 24 31 35 38 40 42 45 48 50 53 54 53 50 47 44 42 41
33 38 43 48 52 55 57 58 57 54 51 48 45 41 37 32 26 21 16 12 9 8 8 8 9 10 11 13 14 15 17 18 20 22 25 30 34 40 45 50 53 55 55 53 48 43 37 31 25 19 15 12 10 9 8 8 9 9 10 10 10 10 10 10 11 14 17 23 30 36 41 42 43 43 44 47 49 51 53 52 50 47 44 42 41 40
35 40 46 50 54 57 60 60 57 54 50 46 43 38 33 28 22 18 13 10 8 8 8 9 10 11 13 15 17 18 20 22 26 30 35 40 46 51 56 58 57 54 49 42 35 28 22 17 13 10 9 8 8 9 10 10 11 12 12 13 13 13 13 15 18 22 28 35 40 43 44 43 43 43 45 47 49 51 52 50 48 45 43 41 40 39
38 44 50 55 59 62 64 61 56 51 47 43 38 33 27 23 18 14 11 9 8 8 9 10 11 12 14 16 18 20 23 27 33 39 45 51 56 58 59 55 49 41 33 26 19 15 11 9 8 8 9 10 12 13 14 14 15 15 15 16 17 18 20 23 28 33 39 43 45 45 43 42 42 43 45 48 50 51 50 47 45 43 41 39 38 37
44 50 57 61 65 66 64 59 53 48 43 38 33 27 22 18 14 11 9 8 8 8 9 10 12 13 15 17 19 22 27 33 39 46 53 57 58 56 50 42 34 25 18 13 10 9 8 8 9 11 13 14 16 17 18 18 18 19 20 22 24 26 29 33 37 41 44 45 44 42 40 40 42 45 49 52 53 51 49 45 42 39 37 35 33 32
51 58 64 67 68 66 61 54 48 43 37 32 26 21 17 14 11 10 9 9 9 9 10 12 13 14 16 18 22 26 32 38 44 50 55 55 51 44 35 27 19 14 10 8 8 9 10 11 12 14 16 18 19 20 21 23 24 25 26 28 31 33 37 40 42 43 43 42 41 39 39 41 46 52 58 59 58 54 49 43 38 35 31 29 27 26
58 64 68 69 67 62 56 49 43 36 30 24 19 16 13 11 10 9 8 9 10 11 12 13 15 17 19 23 27 32 38 43 47 51 52 47 40 31 22 15 11 8 7 8 10 11 13 14 15 16 18 19 21 23 24 26 27 29 31 33 35 37 39 41 41 41 39 38 37 37 38 42 49 55 60 61 60 55 47 39 34 30 26 23 22 22
64 68 70 67 63 57 51 43 36 28 22 17 14 11 10 9 9 9 9 10 11 12 14 15 18 20 24 29 34 39 43 47 48 47 44 36 28 19 12 8 7 6 7 9 11 13 14 15 15 16 17 19 21 23 25 26 28 30 32 33 35 36 37 37 36 35 34 33 33 35 37 40 44 49 53 54 52 47 39 31 26 22 20 19 20 21
68 69 68 63 58 51 44 36 28 21 16 12 10 8 7 8 9 9 10 11 13 14 16 18 22 26 31 36 41 44 47 47 44 39 33 25 17 11 7 6 6 7 8 9 10 11 13 13 14 14 14 16 18 19 21 23 24 26 27 28 29 29 29 29 28 27 26 26 27 29 31 32 33 34 35 36 33 29 23 18 16 16 18 20 23 27
70 68 63 58 52 45 37 29 22 16 11 9 7 7 7 8 9 11 12 14 15 17 20 24 28 34 39 43 45 46 45 42 36 29 21 15 10 6 5 6 6 7 7 8 8 9 10 10 11 11 11 11 12 14 15 16 17 18 19 19 19 19 19 19 18 17 17 17 18 18 18 18 17 15 15 15 14 12 11 13 16 19 24 28 33 37
Wind_Speed
32 33 33 34 35 35 35 35 35 35 34 35 37 39 41 42 41 40 39 39 38 38 38 38 37 37 36 36 36 35 35 35 34 34 35 35 36 37 38 40 41 42 44 45 46 48 49 50 51 52 53 54 55 56 57 58 59 60 61 62 63 63 63 63 63 63 62 61 59 58 56 54 51 49 46 43 42 41 42 43 45 46 48 50 51 53
32 33 34 34 35 35 35 35 35 35 36 37 39 41 42 42 41 39 39 38 37 37 36 35 35 34 34 34 34 34 33 33 34 34 35 36 37 38 39 41 42 43 45 46 47 48 49 51 52 52 53 54 55 56 57 59 60 61 61 62 62 63 63 62 62 61 60 59 57 55 53 50 47 45 42 41 41 42 43 45 47 48 50 52 53 54
33 33 34 34 35 35 35 35 36 36 37 38 41 42 43 41 39 37 36 35 34 33 32 32 32 33 33 33 33 32 32 33 33 34 35 37 38 39 40 42 43 44 46 47 48 49 50 51 52 53 54 55 56 57 58 59 60 61 61 62 62 62 61 61 60 59 58 56 54 52 49 46 44 42 41 41 42 44 45 47 49 50 52 53 54 55
33 33 33 34 34 35 35 36 36 37 39 41 43 44 42 39 37 35 34 33 31 30 30 31 31 31 31 31 31 32 32 33 34 35 36 38 39 40 42 43 44 45 46 47 48 49 50 51 52 53 54 55 56 57 58 59 60 60 61 61 61 61 60 59 58 57 55 53 51 48 45 43 41 40 41 42 44 46 47 49 51 52 53 54 55 56
30 31 32 32 33 34 35 36 38 39 42 44 45 43 40 37 35 33 32 30 29 29 29 30 30 30 30 30 30 31 32 33 34 36 37 39 40 41 42 44 45 46 47 48 48 49 50 51 52 53 54 55 56 57 58 59 60 60 60 60 60 59 58 57 56 54 52 50 47 44 42 40 40 41 42 44 46 48 49 51 52 53 54 55 55 56
28 29 30 31 32 34 36 38 40 43 44 44 43 40 37 34 32 31 30 28 28 28 28 29 29 29 29 29 30 31 33 34 36 37 38 40 41 42 43 44 45 46 47 48 49 49 50 52 53 54 55 56 57 58 58 59 59 59 59 59 58 58 56 55 53 51 49 46 43 41 40 40 41 42 44 46 48 49 51 52 53 54 55 55 56 56
26 28 30 32 34 36 38 41 43 44 43 41 38 35 33 32 30 29 27 26 26 26 27 27 27 28 29 30 31 32 34 35 37 38 39 40 42 43 44 45 46 46 47 48 49 50 51 52 53 54 55 56 57 58 58 58 59 59 58 58 57 56 54 52 50 48 45 43 41 39 40 41 42 44 46 48 49 50 52 53 54 55 55 56 56 57
26 29 32 34 37 39 42 43 43 41 38 35 32 31 30 29 27 26 25 24 24 25 25 26 26 28 29 30 32 33 35 36 38 39 40 41 42 43 44 45 46 46 47 48 49 50 51 52 54 55 56 57 57 58 58 58 58 58 57 56 55 53 52 49 47 44 42 40 39 40 41 42 44 46 47 49 50 51 53 54 54 55 56 56 57 57
28 30 34 37 40 42 42 40 38 35 32 30 29 28 27 26 24 23 23 23 24 24 25 26 27 28 30 31 33 35 36 37 38 40 41 42 43 44 45 45 46 47 47 48 49 50 52 53 54 55 56 57 57 57 58 57 57 57 56 55 53 51 49 47 44 42 40 39 40 41 42 44 46 47 48 50 51 52 53 54 55 55 56 56 57 58
30 33 36 39 40 40 37 35 32 30 29 28 27 25 24 22 21 21 22 23 24 25 26 27 28 29 31 32 34 36 37 38 39 40 41 42 43 44 45 45 46 47 48 49 50 51 52 54 55 55 56 57 57 57 57 57 57 56 54 53 51 49 46 44 42 40 39 40 41 42 44 46 47 48 50 51 52 53 54 54 55 55 56 57 58 58
32 35 38 38 37 35 32 30 29 28 27 26 24 22 21 20 20 20 21 23 24 26 27 28 29 31 32 34 35 37 38 39 40 40 41 42 43 44 45 46 46 47 48 49 50 52 53 54 55 55 56 56 56 57 57 56 56 55 53 51 49 47 44 42 41 40 40 41 42 44 46 47 48 50 51 52 53 54 54 55 55 56 56 57 58 59
34 35 35 34 33 31 29 28 27 26 25 22 20 18 18 19 20 21 22 23 25 26 28 29 31 32 34 35 36 38 39 40 41 41 41 42 42 44 45 46 47 47 48 49 51 52 53 53 54 55 55 55 56 56 56 55 54 53 52 50 47 45 43 41 40 40 41 43 44 46 47 48 50 51 52 53 54 54 54 55 55 56 57 58 59 60
33 33 32 31 30 29 28 27 26 24 21 18 16 16 17 19 20 21 23 24 26 27 29 30 31 33 34 36 37 38 39 40 41 42 42 42 43 44 45 46 47 48 49 50 51 52 52 53 53 54 54 54 55 55 54 54 53 52 50 48 46 44 42 41 41 42 43 44 46 47 48 50 51 52 53 54 54 54 55 55 56 57 58 59 60 61
32 31 30 30 29 28 27 25 22 19 16 15 16 17 18 20 21 22 24 25 27 28 30 31 32 34 35 36 37 38 39 40 41 42 43 43 43 44 46 47 48 49 50 51 51 52 52 53 53 53 53 54 54 53 53 52 51 50 48 46 44 43 42 42 43 44 45 46 48 49 50 51 52 53 53 54 54 55 55 56 56 57 59 60 61 62
33 32 30 29 28 27 24 21 17 15 14 15 16 18 19 21 22 24 25 26 28 29 31 32 33 34 35 36 37 38 39 40 41 42 43 44 44 45 46 48 49 50 51 51 52 52 53 53 53 53 53 53 53 52 51 50 49 47 46 44 43 42 43 43 44 46 47 48 49 50 51 52 53 53 54 54 54 55 56 56 57 59 60 61 62 63
33 32 29 27 25 23 20 17 15 14 15 16 18 19 21 22 24 25 26 28 29 30 32 33 34 36 36 37 38 39 40 41 42 43 44 45 45 46 47 49 50 51 51 52 52 53 53 53 54 53 53 53 52 51 49 48 47 45 44 43 42 43 44 45 46 47 48 49 50 51 52 52 53 53 54 54 55 55 56 57 59 60 61 62 63 64
33 31 28 24 22 19 17 15 14 15 16 18 19 21 22 24 25 26 28 29 30 31 32 34 35 36 37 38 39 39 40 41 42 43 44 45 46 47 48 49 50 51 52 53 53 53 54 54 54 54 53 52 51 50 48 47 45 44 43 42 43 44 45 46 48 49 50 51 51 52 52 53 53 53 54 54 55 56 57 58 60 61 62 63 63 64
32 30 26 22 19 17 16 15 15 16 18 19 21 22 24 25 26 27 29 30 31 32 33 34 35 36 37 38 39 39 40 41 43 44 45 46 47 48 49 50 51 52 53 53 54 54 54 54 54 54 53 52 51 49 47 46 44 43 42 43 43 45 46 47 49 50 50 51 52 52 52 53 53 53 54 55 56 57 58 59 60 62 62 63 63 63
30 27 24 20 18 17 16 16 17 18 19 21 22 24 25 26 27 29 30 31 32 33 34 34 35 36 37 38 39 39 40 41 43 44 45 46 47 48 49 51 52 53 53 54 54 55 55 55 54 54 53 52 50 49 47 45 44 43 43 43 44 46 47 48 49 50 51 51 52 52 52 52 53 53 54 55 56 58 59 60 61 62 62 63 62 62
27 24 21 19 17 17 17 17 18 20 21 23 24 25 26 27 28 29 31 32 33 33 34 35 36 36 37 38 39 40 40 41 43 44 45 47 48 49 50 51 52 53 54 54 55 55 55 55 54 54 52 51 50 48 47 45 44 43 43 44 45 47 48 49 50 51 51 52 52 52 52 52 53 54 55 56 58 59 60 61 61 62 62 61 61 60
23 21 19 18 17 17 17 18 20 21 22 24 25 26 27 28 29 30 32 32 34 34 35 36 37 37 37 38 39 40 41 41 43 44 45 47 48 49 50 51 51 52 53 54 55 55 55 55 54 53 52 51 50 48 47 46 45 44 45 45 46 47 49 50 50 51 51 51 52 52 52 53 54 55 57 58 59 60 61 61 61 61 60 60 58 57
20 18 17 17 17 17 18 19 21 22 24 25 26 27 28 29 30 31 32 33 34 35 36 37 38 38 38 38 39 40 41 42 43 44 45 47 48 49 50 50 51 52 53 54 55 55 55 55 54 53 52 51 49 48 47 46 46 45 46 47 48 49 50 50 51 51 52 52 52 52 53 54 55 57 58 59 60 60 61 60 60 59 59 57 56 54
17 16 16 16 17 18 19 20 22 24 25 26 27 28 29 30 31 32 33 34 35 36 37 38 39 39 39 39 40 40 41 42 43 44 46 47 48 49 49 50 50 51 52 53 54 54 54 54 53 52 52 51 50 49 48 48 47 47 47 48 49 50 51 51 52 52 52 52 53 54 54 56 57 58 59 60 60 60 60 60 59 58 57 55 53 52
16 15 15 16 17 18 20 22 23 25 26 27 28 29 30 31 32 33 34 34 35 36 37 38 39 39 40 40 40 41 42 43 44 45 46 47 48 49 49 49 50 50 51 52 52 53 53 53 53 52 51 51 51 50 50 49 49 49 49 50 51 51 52 52 52 53 53 53 54 55 56 57 58 59 60 60 60 60 59 58 57 56 54 53 51 50
14 14 15 16 18 20 21 23 24 26 27 28 29 30 30 31 32 33 34 35 35 36 37 38 39 39 40 40 41 42 43 44 45 46 47 48 49 49 50 49 49 49 49 50 51 51 51 52 52 52 52 51 51 51 51 51 51 51 51 51 52 52 52 53 53 53 54 55 55 56 57 58 59 60 60 60 60 59 58 57 55 54 53 51 49 48
13 14 16 17 19 21 23 24 25 26 27 28 29 30 31 32 33 34 34 35 36 36 37 38 39 39 40 41 42 43 44 45 46 47 48 48 49 49 50 49 49 48 48 48 49 49 49 50 51 51 51 52 52 52 52 52 52 52 52 52 52 53 53 53 54 54 55 56 57 58 59 59 60 60 60 59 59 58 56 55 53 52 51 49 48 47
14 15 17 19 21 22 24 25 26 27 28 29 30 31 32 33 34 34 35 36 36 37 37 38 39 40 41 41 42 43 44 46 47 48 48 48 49 49 49 49 48 47 46 46 47 47 48 49 50 50 50 51 51 52 52 52 53 53 53 53 53 53 53 54 54 55 56 57 58 59 59 60 60 59 59 58 57 56 54 53 51 50 49 48 47 46
15 17 19 20 22 23 24 25 27 27 28 29 30 31 32 33 34 35 35 36 37 37 38 38 39 40 41 42 43 44 45 46 47 48 48 49 49 49 49 48 47 46 45 45 45 46 47 48 48 49 50 50 51 52 52 52 53 53 53 54 54 54 54 55 56 56 57 58 59 59 59 59 59 59 58 56 55 54 52 51 50 49 47 46 45 45
17 19 20 22 23 24 25 26 27 28 29 30 31 32 33 34 34 35 36 36 37 37 38 38 39 40 41 43 44 45 46 46 47 48 48 48 48 48 48 48 47 46 44 44 44 45 46 47 47 48 49 50 51 52 52 53 53 54 54 54 55 55 56 56 57 58 58 59 59 59 59 59 58 58 56 55 54 52 51 50 49 47 46 45 44 43
18 20 21 22 24 24 26 26 27 29 30 31 32 33 34 34 35 35 36 36 37 37 38 39 40 41 42 43 44 45 46 46 47 47 47 47 47 47 47 47 46 46 44 43 43 43 44 45 47 48 49 51 52 52 53 53 54 54 55 56 56 57 57 58 59 59 60 60 60 60 59 59 58 57 55 54 52 51 50 49 48 46 45 43 41 39
20 21 22 23 24 25 26 27 28 29 30 31 32 33 34 35 35 36 36 37 37 38 39 40 41 42 43 44 44 45 46 46 47 47 47 46 46 46 46 46 46 46 45 44 43 43 43 44 46 47 49 51 52 53 54 54 55 55 56 57 57 58 59 59 60 60 60 61 60 60 59 58 57 56 54 53 52 51 49 48 46 44 42 40 38 36
21 22 23 23 24 25 26 27 28 29 30 31 32 33 34 35 35 36 36 37 38 38 39 40 41 43 44 45 45 45 46 46 47 47 47 46 46 46 46 45 45 46 46 45 44 44 44 44 46 47 49 51 52 54 54 55 56 57 57 58 58 59 60 60 61 61 61 61 60 60 59 58 57 55 54 53 51 50 49 47 44 41 39 36 34 33
21 22 23 24 25 25 26 27 28 30 31 32 33 33 34 35 35 36 37 37 38 39 40 41 42 43 44 45 45 46 46 46 46 47 46 46 45 46 46 45 45 45 46 46 45 45 45 46 47 48 49 51 53 54 55 56 57 57 58 59 59 60 60 60 61 61 61 61 60 60 59 57 56 55 54 52 51 49 47 44 41 38 35 33 32 31
21 22 23 24 25 26 27 28 29 30 31 32 33 34 35 36 36 37 37 38 39 39 40 41 42 43 44 45 45 46 46 46 46 47 46 45 45 45 46 45 45 45 46 46 46 47 47 48 49 49 51 52 53 54 55 56 57 58 59 59 59 60 60 60 60 61 61 60 60 59 58 57 56 54 53 51 49 47 44 40 37 35 33 31 30 30
21 22 23 24 25 26 27 29 30 31 33 34 35 35 36 37 37 38 38 39 39 40 40 41 42 43 44 44 45 45 45 46 46 46 46 45 45 46 46 46 46 46 46 47 47 48 48 49 50 51 52 53 54 54 55 56 57 58 59 59 60 60 60 60 60 60 60 60 59 58 57 56 55 53 51 49 46 43 40 36 34 32 31 30 29 29
21 22 23 24 26 27 28 30 31 33 34 35 36 37 37 38 38 39 39 39 40 40 41 42 43 44 44 45 45 45 45 46 46 46 45 45 45 46 46 47 47 48 48 48 49 49 49 50 51 52 53 53 54 55 55 56 57 58 59 60 60 60 61 61 60 60 60 59 58 57 56 54 52 51 48 46 42 39 36 33 32 31 30 30 29 28
21 22 24 25 26 28 29 31 32 33 35 36 36 37 38 38 39 39 39 40 41 41 42 43 44 45 46 46 46 46 46 46 46 46 46 46 46 46 47 48 49 49 50 50 50 51 51 51 52 53 53 54 54 55 56 56 57 58 59 60 61 61 61 61 61 60 59 57 56 55 53 51 49 47 44 41 38 35 32 31 30 29 29 29 28 28
21 23 24 25 27 29 30 31 33 34 35 36 36 37 38 38 39 39 39 40 41 42 43 44 45 46 46 46 46 46 46 46 46 46 46 46 47 47 48 49 50 51 51 52 52 52 53 53 53 54 54 55 55 56 57 57 58 59 60 61 61 61 61 61 60 59 57 55 53 52 50 48 45 43 40 36 33 31 30 29 28 28 28 28 28 28
22 23 25 26 28 29 31 32 33 34 35 35 36 37 37 38 38 39 40 41 42 43 44 45 46 46 46 46 46 46 46 45 45 46 46 47 48 49 50 51 52 52 53 53 54 54 54 54 55 55 55 56 57 58 59 59 60 60 60 61 61 60 60 59 58 56 54 52 50 48 46 43 41 38 35 32 29 28 27 27 27 27 28 28 28 28
22 24 25 27 28 30 31 32 33 34 35 35 36 37 37 38 39 39 40 42 43 44 45 46 46 46 46 46 46 45 45 46 46 47 48 49 50 50 51 52 53 54 54 55 55 55 56 56 56 57 57 58 59 60 61 61 61 61 60 59 58 57 57 56 54 52 50 47 45 43 41 39 36 33 30 28 27 26 26 26 27 27 27 27 28 28
23 25 26 28 29 30 31 33 34 34 35 35 36 36 37 38 39 40 41 42 43 44 45 45 45 46 46 45 45 45 45 46 47 48 49 50 51 52 53 54 54 55 55 56 56 57 57 58 58 59 60 61 61 62 62 61 61 60 58 56 54 53 52 51 49 47 45 43 40 38 36 33 31 29 27 26 26 26 26 26 27 27 27 27 28 28
24 26 27 29 30 31 32 33 34 35 35 35 36 36 37 38 39 40 41 42 42 43 43 43 43 44 44 45 45 45 46 47 48 49 51 52 53 53 54 55 55 56 56 57 57 58 59 59 60 61 61 62 61 61 60 59 58 56 54 52 50 48 47 45 43 41 39 37 35 33 31 29 28 27 26 26 26 26 27 27 27 27 27 27 28 28
25 27 28 30 31 32 33 34 34 35 35 35 36 36 37 37 38 39 40 40 40 41 41 41 41 42 42 44 45 46 47 48 50 51 52 52 53 54 55 55 56 56 57 57 58 59 60 61 61 62 61 61 60 58 56 54 53 51 49 47 45 43 41 40 38 36 34 32 30 29 28 27 27 27 27 27 27 27 27 27 27 27 28 28 28 29
26 28 29 31 32 33 34 34 34 34 35 35 36 36 37 37 38 39 39 40 39 39 39 39 40 41 41 43 44 46 48 49 50 51 52 52 53 54 55 55 56 57 58 59 60 60 61 61 61 60 59 58 56 54 51 49 47 45 44 42 40 38 36 35 33 31 29 28 27 27 27 27 27 28 28 28 28 28 28 28 28 28 28 29 29 29
27 29 30 32 33 33 34 34 34 34 34 35 36 36 37 38 38 39 39 39 39 39 39 39 39 40 41 42 44 45 47 48 49 50 51 52 53 54 55 56 57 58 59 60 61 61 60 60 58 57 55 53 51 48 46 44 42 41 39 37 36 34 33 31 29 27 27 26 26 26 27 28 28 29 29 29 29 29 29 29 29 29 29 29 29 28
28 30 31 32 33 33 33 33 33 34 34 35 36 36 37 38 38 38 38 38 38 38 39 39 39 40 41 42 43 45 46 47 48 49 50 51 53 54 55 56 58 59 60 60 61 60 59 57 55 53 50 48 46 44 42 40 38 37 35 34 32 31 30 28 27 26 26 26 26 27 28 28 29 29 29 30 30 31 31 31 31 30 30 29 28 27
29 31 32 32 32 32 32 33 33 34 34 35 36 36 37 37 37 38 37 38 38 38 39 39 40 41 42 43 44 45 46 47 48 49 50 51 52 54 55 57 58 58 59 58 58 57 56 54 52 49 46 44 42 40 39 37 36 34 33 32 30 29 28 28 27 27 27 27 27 28 28 28 29 29 29 30 31 32 32 32 32 31 30 28 27 25
30 31 31 31 31 31 32 32 33 34 35 35 36 36 36 36 36 36 37 37 37 38 39 40 41 42 43 44 44 45 46 47 48 49 50 51 52 54 55 56 57 57 56 55 54 54 53 51 49 46 44 41 39 37 36 35 34 33 32 31 30 29 29 28 28 28 28 28 29 29 29 28 28 28 28 29 31 32 33 32 32 30 28 26 24 22
30 30 31 30 30 30 31 32 33 34 34 35 35 35 35 36 36 36 36 37 37 38 39 40 41 42 43 44 45 46 47 48 48 49 50 52 53 54 54 55 54 54 53 51 50 50 49 49 47 45 42 40 37 36 35 34 33 32 32 31 30 30 30 29 30 30 30 30 30 30 29 29 29 28 28 29 29 30 31 30 29 27 26 23 21 19
30 30 30 30 30 30 31 32 32 33 34 34 34 34 34 35 35 35 36 37 37 39 40 41 42 43 44 44 45 46 47 48 49 50 51 53 53 54 54 53 52 51 49 48 47 46 45 45 45 44 41 39 37 35 34 33 33 32 32 32 31 31 31 31 31 30 30 30 30 30 30 29 29 28 28 28 28 28 27 26 25 24 22 21 19 17
29 29 29 29 30 30 31 31 32 32 33 33 33 33 33 34 34 35 36 37 38 39 40 41 42 43 44 45 46 47 48 49 50 52 53 53 54 53 53 51 50 49 47 46 44 43 42 41 41 41 40 38 36 35 33 33 32 32 32 32 31 31 31 31 30 30 30 29 29 29 28 28 27 26 26 25 24 24 23 22 21 20 19 18 17 16
Wind_Direction
252 254 255 257 259 260 261 264 266 270 274 278 281 282 281 278 274 271 269 268 268 269 269 271 272 273 274 276 277 279 281 283 285 287 289 290 291 292 293 294 294 294 294 295 296 297 298 299 300 301 302 302 303 303 303 304 304 304 305 306 306 307 307 307 308 308 308 308 308 307 306 306 305 304 303 302 301 301 302 303 303 304 304 304 304 305
252 254 255 257 258 260 262 265 268 271 275 279 281 281 279 275 271 267 265 265 266 267 269 271 273 274 276 278 280 282 284 286 288 290 291 292 293 293 294 294 294 295 295 296 297 299 300 301 301 302 303 303 303 304 304 304 305 305 306 307 307 308 308 308 308 308 308 308 307 307 306 305 304 303 302 301 302 302 303 303 304 304 304 305 305 305
252 254 256 258 261 263 266 268 270 273 277 279 280 279 276 272 268 265 264 264 266 268 270 273 275 276 278 280 283 285 287 289 290 292 293 293 294 294 294 295 295 296 297 298 299 300 301 302 302 303 303 303 304 304 305 305 306 307 307 308 308 308 309 309 308 308 308 307 307 306 305 304 303 302 302 302 302 303 303 304 304 304 304 305 305 306
255 257 260 263 266 269 271 273 275 277 278 279 278 276 273 269 265 264 265 266 268 270 273 275 277 279 281 283 286 288 290 291 292 293 294 294 294 295 295 296 297 298 299 300 301 302 302 302 303 303 303 304 305 305 306 307 307 308 308 309 309 309 309 309 308 308 307 307 306 305 304 303 302 302 302 302 303 303 304 304 304 305 305 306 306 307
260 264 267 271 274 275 276 276 277 278 278 277 275 272 268 265 264 264 266 268 271 274 276 278 280 282 285 287 289 291 292 293 294 294 294 295 295 296 296 297 299 300 301 301 302 302 303 303 303 304 304 305 306 307 307 308 308 309 309 309 309 309 309 308 308 307 307 306 305 304 303 302 302 302 302 303 303 303 304 304 305 305 306 306 307 307
269 273 276 278 279 278 277 277 277 277 275 273 271 268 265 263 263 266 268 272 275 278 280 282 284 286 289 291 292 293 294 295 295 295 295 296 296 297 298 299 300 301 302 302 303 303 303 304 305 305 306 307 307 308 308 309 309 309 309 309 309 309 308 308 307 307 306 305 304 303 302 301 302 302 302 303 303 304 304 305 305 306 306 307 307 307
277 279 280 279 278 276 275 276 275 275 273 270 268 265 263 263 265 268 273 277 280 282 284 286 288 291 292 294 295 295 295 295 295 296 296 297 298 299 300 300 301 302 302 303 304 304 305 305 306 307 307 308 309 309 309 310 310 310 309 309 309 308 308 307 307 306 305 304 303 302 301 301 302 302 303 303 304 304 304 305 306 306 307 307 307 307
278 279 278 277 275 275 274 275 274 273 270 268 266 264 264 265 269 274 279 283 285 287 289 291 293 294 295 296 296 296 296 296 296 297 298 299 300 300 301 301 302 303 304 304 305 306 306 307 307 308 309 309 310 310 310 310 310 310 309 309 308 308 307 307 306 305 304 303 302 301 301 301 302 302 303 303 304 304 305 305 306 307 307 307 307 307
276 276 275 274 274 274 274 274 273 271 269 266 264 264 266 270 276 283 287 290 291 292 293 294 295 296 296 297 296 296 297 297 298 299 300 300 301 302 302 303 304 305 305 306 307 307 308 308 309 309 310 310 310 310 310 310 310 309 309 309 308 307 307 306 305 304 302 301 301 301 301 301 302 302 303 304 304 305 305 306 306 307 307 307 307 307
276 275 275 274 275 275 275 273 272 269 266 264 265 268 272 278 285 290 292 294 295 296 297 297 297 297 297 297 297 297 298 298 299 300 301 302 303 303 304 305 305 306 307 307 308 309 309 310 310 310 311 311 311 311 310 310 310 309 309 308 307 307 306 304 303 302 301 301 301 301 301 302 302 303 303 304 305 305 306 306 306 307 307 307 307 307
278 278 277 277 277 277 275 272 269 266 264 265 268 274 282 287 291 293 295 297 297 298 298 299 299 299 299 299 299 299 300 300 301 301 302 304 304 305 305 306 306 307 308 309 309 310 310 311 311 311 311 311 311 311 310 310 309 309 308 307 306 305 304 303 302 301 301 301 301 301 301 302 303 304 304 305 305 306 306 306 306 307 307 307 307 307
283 282 281 280 278 276 274 270 267 265 265 268 274 280 286 291 294 296 298 298 299 299 299 300 300 300 301 301 301 301 302 302 303 303 304 305 306 306 306 307 307 308 309 309 310 311 311 311 311 311 311 311 311 310 310 310 309 308 308 307 306 304 303 302 301 301 301 301 301 302 302 303 304 304 305 305 306 306 306 306 306 306 307 307 307 307
291 289 286 282 278 274 270 267 265 266 269 276 283 290 294 296 297 299 299 300 300 300 300 301 301 301 302 302 303 303 304 304 305 305 306 306 307 307 307 308 308 309 310 310 311 311 311 312 312 312 311 311 311 310 309 309 308 308 307 306 304 303 302 301 301 301 301 301 302 302 303 304 304 305 305 306 306 306 306 306 306 306 307 307 307 307
298 296 290 282 276 271 267 266 266 271 279 288 295 298 300 301 301 301 301 301 301 302 302 302 302 303 303 303 304 305 305 306 306 306 307 307 308 308 309 309 309 310 311 311 311 312 312 312 312 312 311 311 310 309 309 308 307 307 306 304 303 302 302 302 301 302 302 302 303 303 304 304 305 305 305 306 306 306 306 306 307 307 307 307 307 307
301 298 290 280 273 269 267 269 275 285 295 300 302 303 304 304 304 303 303 303 303 304 304 304 304 304 304 305 306 306 307 307 307 308 308 308 309 309 310 310 310 311 311 312 312 312 313 313 312 312 311 310 309 309 308 307 306 305 304 303 302 302 302 302 302 302 302 303 303 304 304 305 305 305 305 306 306 306 306 307 307 307 307 307 307 307
300 298 289 278 272 270 273 280 291 302 306 307 306 306 306 305 305 305 305 306 306 306 306 307 307 307 307 307 308 308 308 309 309 309 309 310 310 310 311 311 311 312 312 312 313 313 313 313 312 312 311 310 309 308 307 306 305 304 303 302 301 301 301 302 302 303 303 303 304 304 305 305 305 305 305 306 306 306 306 307 307 307 307 307 307 307
298 295 288 279 275 277 284 294 304 309 310 309 308 308 308 307 308 308 308 308 308 308 309 309 309 309 309 309 309 309 310 310 310 310 311 311 311 311 312 312 312 312 313 313 313 313 313 313 312 312 311 310 309 308 307 305 304 303 301 301 301 301 301 302 302 303 303 304 304 304 304 305 305 305 305 305 306 306 306 307 307 307 307 307 307 307
295 292 287 283 283 289 297 305 309 311 311 310 310 310 310 310 310 310 310 310 310 310 310 310 310 309 310 309 310 310 310 311 311 311 311 311 312 312 313 313 313 313 313 314 314 313 313 313 312 311 311 310 309 307 306 305 303 302 301 300 300 301 301 302 302 303 303 303 304 304 304 304 304 304 305 305 305 306 306 307 307 308 308 308 308 308
291 288 286 286 291 298 304 310 312 313 313 312 312 312 312 312 311 311 311 311 311 310 310 310 310 309 310 310 310 311 311 311 311 312 312 312 312 313 314 314 314 314 314 314 314 314 313 313 312 311 311 310 309 307 306 305 303 302 301 300 300 301 301 302 302 303 303 303 303 303 303 304 304 304 304 305 305 306 307 307 308 308 308 308 308 308
287 286 286 290 297 304 310 313 315 315 314 313 313 313 313 313 313 312 312 311 311 310 310 310 310 310 310 311 311 311 311 311 312 312 312 313 313 314 315 315 315 315 314 314 314 314 313 313 312 311 311 310 309 307 306 305 303 302 301 301 301 301 301 302 302 302 303 303 303 303 303 303 303 304 304 305 306 306 307 307 308 308 308 308 308 308
285 286 290 296 304 311 315 316 316 315 314 314 314 314 314 314 314 313 312 312 312 311 311 311 311 311 311 312 312 312 311 311 312 313 313 314 315 315 316 316 316 315 315 315 314 314 313 312 312 311 311 310 309 308 307 305 304 303 302 301 301 301 302 302 302 302 302 303 302 302 303 303 304 304 305 305 306 307 307 308 308 308 308 308 308 308
287 291 297 304 311 315 316 316 315 314 314 314 314 315 315 315 315 314 314 313 313 313 313 313 312 312 312 312 312 311 311 312 312 313 314 315 316 316 317 317 317 316 315 315 314 314 313 312 312 312 311 310 309 308 307 306 305 304 303 302 302 302 302 302 303 303 303 303 303 303 303 304 304 305 305 306 306 307 307 308 308 308 308 308 308 308
291 299 305 311 315 316 315 314 313 313 313 314 315 316 316 315 315 315 315 315 315 315 314 314 313 313 312 312 311 311 311 312 313 314 316 317 317 317 318 318 318 316 315 315 314 314 313 313 313 312 312 311 310 309 308 307 306 305 305 304 304 304 304 304 304 304 304 304 304 304 304 304 305 305 306 306 307 307 307 308 308 308 308 308 308 309
297 305 310 314 315 314 313 312 312 313 314 315 316 316 316 316 316 316 316 316 316 315 315 314 313 312 312 311 312 312 313 314 315 316 317 318 318 318 318 318 318 317 316 315 315 314 314 314 313 313 312 312 311 310 309 309 308 307 307 306 306 305 305 305 305 305 305 305 305 305 305 305 305 306 306 306 307 307 308 308 308 308 309 309 309 309
303 309 312 312 311 311 311 312 313 314 315 316 316 317 317 317 317 317 317 316 316 315 314 313 312 312 312 312 313 314 315 316 317 318 319 319 319 319 319 319 318 317 317 316 315 315 315 314 314 314 313 313 312 311 311 310 310 309 308 308 307 307 307 307 306 306 306 305 305 305 305 306 306 306 306 307 308 308 308 309 309 309 309 310 310 309
308 310 309 309 309 310 311 313 314 315 316 317 317 317 318 318 318 317 317 316 315 314 313 313 312 312 313 314 315 316 317 318 319 319 320 320 319 319 319 319 319 318 317 316 316 316 315 314 314 314 314 313 313 312 312 311 311 310 310 309 309 308 308 307 307 307 306 306 306 306 306 306 306 307 307 308 308 309 309 310 310 310 310 310 310 310
307 306 306 307 308 310 312 313 314 316 317 317 318 318 319 319 318 317 316 316 315 314 314 313 313 314 315 316 317 318 319 319 320 320 320 320 319 319 319 319 318 318 317 317 316 315 315 314 314 314 314 313 313 313 312 312 312 311 311 310 310 309 309 308 308 307 307 306 306 306 306 306 307 308 308 309 309 310 310 310 310 310 311 310 310 310
305 305 306 307 309 310 312 314 315 317 318 319 319 320 319 319 318 317 316 315 315 315 314 314 315 316 317 318 319 320 320 321 321 321 321 320 319 319 319 318 318 318 317 316 316 315 314 314 313 313 313 313 312 312 312 312 312 312 311 311 310 310 309 309 308 307 307 307 307 307 307 307 308 309 309 310 310 311 311 311 311 311 311 310 310 310
304 305 306 307 309 311 313 315 317 318 319 320 321 320 319 319 318 317 316 316 315 315 315 316 317 318 319 320 321 321 321 321 321 321 321 320 319 319 318 318 317 317 317 316 315 314 314 313 313 313 312 312 312 312 312 312 312 312 312 311 311 310 310 309 308 308 307 307 307 308 308 309 309 310 310 311 311 311 311 311 311 311 311 310 310 310
303 304 305 307 309 312 314 317 319 320 321 321 321 320 319 318 317 316 316 316 316 317 318 318 319 320 321 322 322 322 322 321 321 321 321 320 319 318 318 318 317 317 316 316 315 314 313 313 313 312 312 312 312 312 312 313 312 312 311 311 311 310 310 309 309 308 308 308 309 309 309 310 310 311 311 311 312 312 311 311 311 311 310 310 310 311
302 303 305 308 311 314 316 319 320 321 321 320 320 318 317 317 316 316 317 317 318 319 320 321 322 322 322 323 323 322 322 321 321 321 320 320 319 318 318 318 317 317 316 316 315 313 312 312 312 312 313 312 312 313 313 313 312 312 311 311 310 310 310 310 310 309 309 310 310 310 311 311 311 312 312 312 312 312 311 311 311 311 311 311 311 311
301 304 307 310 313 316 318 320 320 320 320 319 317 317 316 316 317 317 318 319 320 321 322 323 323 323 323 323 323 322 322 322 321 321 321 320 319 319 318 318 317 317 316 316 315 315 314 313 312 313 313 313 313 313 313 312 312 311 311 311 311 310 310 310 310 311 311 311 311 311 312 312 312 312 312 312 312 312 312 311 311 311 311 312 312 313
302 305 308 311 314 317 318 319 319 318 318 317 316 316 317 317 318 319 320 321 322 323 323 324 324 324 324 324 323 323 323 322 322 322 321 321 320 319 319 318 318 317 317 317 317 316 316 315 315 314 314 314 313 313 313 312 312 311 311 311 311 311 311 311 311 311 312 312 312 312 312 312 312 312 312 312 312 312 312 312 312 312 313 313 313 313
303 307 310 313 315 317 317 318 318 318 317 317 317 318 319 320 321 322 323 323 323 323 324 324 325 325 325 324 324 324 323 323 323 322 322 321 321 320 319 319 319 318 318 318 318 318 318 317 317 316 316 315 314 313 313 312 312 312 311 311 311 311 312 312 312 312 312 312 312 312 312 312 312 312 313 313 312 312 312 312 313 313 314 314 314 314
306 309 312 314 316 317 318 318 318 319 319 320 320 321 322 323 324 324 324 324 324 324 324 325 325 325 325 325 325 324 324 324 323 323 322 322 322 321 321 320 320 320 320 320 320 319 319 319 318 317 316 315 314 313 313 313 312 312 312 312 312 312 312 312 312 312 312 312 312 312 312 312 312 312 312 313 313 313 313 313 314 314 314 315 315 315
308 311 314 316 317 319 320 320 321 322 323 323 324 325 325 326 326 326 326 325 325 325 325 326 326 326 326 326 326 326 325 325 324 324 323 323 323 323 322 322 322 322 322 321 321 321 320 319 319 318 316 315 314 313 313 313 313 313 313 313 313 313 313 312 312 312 312 312 312 312 312 312 312 312 312 312 313 313 313 313 314 314 314 315 315 315
311 313 316 318 320 321 323 323 324 325 326 326 327 327 327 327 327 327 327 326 327 327 327 327 327 327 328 327 327 327 326 326 325 325 325 325 325 325 324 324 323 323 323 322 322 321 321 320 319 317 316 315 314 314 314 314 314 314 314 314 314 313 313 312 312 312 312 312 312 311 311 311 311 311 312 312 312 312 313 313 313 314 314 314 315 315
313 316 318 320 322 324 325 326 326 327 327 328 328 328 328 328 328 328 328 328 328 328 329 329 329 329 329 328 328 327 327 327 326 326 326 326 326 326 326 325 325 324 324 323 323 322 321 320 319 318 316 316 315 315 315 315 315 315 315 314 314 313 313 312 312 312 312 312 311 311 311 311 311 311 311 311 312 312 312 312 313 313 314 315 315 316
317 319 321 322 324 325 326 327 327 328 328 328 329 329 329 329 329 329 329 330 330 330 330 330 330 330 330 329 329 329 328 328 328 328 328 328 328 328 327 326 326 325 324 324 323 322 321 320 319 318 318 317 317 316 316 316 316 315 315 315 314 313 313 312 312 312 312 312 311 311 311 311 311 311 311 312 312 312 312 313 313 314 315 316 316 317
319 321 322 323 325 325 326 327 327 328 328 329 330 330 330 331 331 331 331 332 332 332 332 332 332 331 331 331 330 330 330 330 330 330 330 330 329 329 328 327 326 325 325 324 323 322 322 321 320 319 319 318 318 318 317 317 317 316 316 315 314 313 313 313 313 313 313 312 312 312 312 312 312 313 313 313 314 314 314 314 315 316 316 317 318 320
321 322 323 324 325 325 326 327 328 329 329 330 331 332 332 333 333 333 333 334 334 334 334 334 333 333 332 332 332 333 333 333 333 332 332 331 330 329 328 327 327 326 325 324 324 323 322 322 321 320 320 320 319 319 319 319 318 318 317 316 315 315 314 314 314 314 314 313 313 313 314 314 315 315 316 316 316 316 316 316 316 317 318 319 321 322
322 323 324 324 325 326 327 328 329 330 331 332 332 333 334 334 335 335 335 335 335 335 335 335 335 335 334 334 335 335 335 335 334 333 332 331 331 330 329 328 327 326 326 325 324 324 323 322 322 322 322 322 322 321 321 321 320 320 319 318 317 317 316 316 316 316 316 316 316 317 317 318 318 319 319 319 318 318 318 318 318 319 320 322 322 323
323 324 324 326 327 328 329 330 331 332 333 334 334 335 335 336 336 336 336 337 337 337 337 337 337 337 336 336 336 336 336 335 334 334 333 332 331 330 329 328 328 327 326 325 325 324 324 324 324 324 324 324 324 324 324 324 323 322 322 321 320 320 319 319 319 319 319 319 320 321 321 321 321 321 321 320 320 319 319 319 319 321 322 323 323 323
324 325 326 328 329 330 331 333 334 335 335 336 336 336 337 337 337 337 337 337 338 338 338 338 338 338 338 338 337 337 336 335 335 334 333 332 331 330 330 329 328 327 327 326 326 326 326 326 326 326 327 327 327 328 328 327 327 326 325 325 324 324 324 324 325 325 325 325 325 325 324 323 323 323 322 322 321 320 320 320 321 321 322 323 323 323
326 328 329 330 331 333 334 335 336 337 337 337 337 338 338 338 338 338 339 338 339 339 339 339 339 339 339 339 338 337 336 335 335 334 333 332 332 331 330 329 329 329 328 328 328 328 328 328 329 329 330 331 331 331 331 331 331 330 330 330 330 330 330 331 331 331 330 330 329 328 327 326 325 324 324 323 322 321 320 320 321 322 322 323 323 323
329 331 332 333 334 335 337 338 338 339 339 339 339 339 339 339 339 339 340 340 340 340 340 340 340 340 340 339 339 338 337 336 335 334 334 333 332 331 331 330 330 331 331 331 330 330 330 331 332 333 333 334 335 335 335 335 335 335 335 336 336 336 336 336 336 335 334 333 331 330 329 328 327 326 325 323 322 321 321 321 322 322 323 324 324 324
332 333 334 335 336 338 339 340 340 340 340 340 340 340 340 341 341 341 341 341 341 342 342 342 341 341 341 340 339 338 337 337 336 335 334 333 332 332 332 332 332 333 333 333 333 332 332 333 334 335 336 337 338 338 338 338 338 339 340 340 340 340 339 339 338 337 335 333 332 330 329 328 327 326 325 323 322 321 321 322 323 324 325 326 327 327
334 335 336 337 339 340 342 342 342 342 342 342 341 342 342 342 342 342 343 343 343 343 343 343 342 342 341 341 340 339 338 337 336 335 335 334 333 333 333 334 334 335 335 335 335 334 334 334 335 336 337 338 339 339 339 339 340 340 341 342 341 341 340 339 337 336 334 333 331 330 328 327 326 325 324 323 322 321 322 323 325 327 329 331 332 333
336 337 338 340 342 343 344 344 344 343 343 343 343 343 343 344 344 344 345 345 345 345 344 344 344 343 342 341 341 340 339 338 337 336 335 335 334 334 335 335 336 336 337 336 336 335 334 334 334 335 336 337 338 339 339 339 339 339 340 340 340 339 338 337 335 334 333 332 330 328 327 326 325 324 323 323 322 322 324 327 329 332 335 338 340 341
338 340 342 344 345 345 345 345 345 345 345 345 345 345 346 346 347 347 347 347 346 346 346 345 344 344 343 342 341 340 339 338 337 336 336 336 336 336 337 337 338 338 338 338 337 336 335 334 334 334 335 336 337 337 338 338 338 338 337 338 337 337 336 335 334 332 331 330 328 327 326 326 325 326 326 327 328 329 332 335 337 340 343 346 349 352
342 345 346 347 347 347 347 346 346 346 346 347 347 348 349 349 349 349 349 349 348 347 347 346 345 345 344 343 342 341 340 339 338 338 337 337 338 339 339 340 340 340 340 339 339 338 337 335 334 334 334 335 336 337 337 338 337 337 337 337 336 336 335 334 333 332 331 330 329 328 329 331 333 335 337 339 341 343 346 348 350 351 354 356 359 3